Flag Weather past 2 weeks in Niterói, Rio de Janeiro, Brazil

Now
73 °F

Partly cloudy.


Feels Like: 73 °F
Forecast: 71 / 75 °F
Wind: 6 mph from West

Location: Galeao

Current Time: Nov 28, 2014 at 4:17:50 AM

Latest Report: Nov 28, 2014 at 4:00 AM


Visibility: N/A

Pressure: 29.89 "Hg

Humidity: 83%

Dew point: 68 °F

Location of NiteróiLocation

Historic Weather in Niterói — Graph

°F

Niterói temperature yesterday

Maximum temperature yesterday: 79 °F (at 8:00 AM)
Minimum temperature yesterday: 73 °F (at 10:00 PM)
Average temperature yesterday: 76 °F

Past Weeks' High & Low Weather Summary

 TemperatureHumidityPressure
High99 °F (Nov 22, 2:00 PM)94% (Nov 16, 12:00 AM)31.10 "Hg (Nov 16, 12:00 AM)
Low63 °F (Nov 17, 1:00 AM)27% (Nov 13, 2:00 PM)29.62 "Hg (Nov 13, 3:00 PM)
Average76 °F68%29.92 "Hg
* Reported Nov 13 3:00 AM — Nov 28 3:00 AM, Niterói, Weather by CustomWeather, © 2014

Note: Actual official high and low records may vary slightly from our data, if they occured in-between our weather recording intervals... More about our weather records

Advertising

Niterói weather history for previous 24 hours

 ConditionsComfort  
Time TempWeatherWind HumidityBarometerVisibility
3:00 AM
Nov 28
73 °FPassing clouds.5 mph89%29.89 "HgN/A
2:00 AM73 °FPartly cloudy.6 mph83%29.92 "Hg5 mi
1:00 AM73 °FPartly cloudy.7 mph89%29.92 "HgN/A
12:00 AM73 °FPassing clouds.5 mph89%29.92 "HgN/A
11:00 PM
Nov 27
75 °FPassing clouds.5 mph83%29.95 "HgN/A
10:00 PM73 °FLight rain. Passing clouds.6 mph89%29.92 "HgN/A
9:00 PM75 °FPartly cloudy.6 mph83%29.92 "HgN/A
8:00 PM75 °FPartly cloudy.7 mph83%29.89 "HgN/A
7:00 PM75 °FLight rain. Broken clouds.9 mph83%29.86 "HgN/A
6:00 PM75 °FLight rain. Broken clouds.8 mph83%29.86 "Hg5 mi
5:00 PM75 °FDrizzle. Broken clouds.8 mph83%29.83 "Hg5 mi
4:00 PM77 °FPartly sunny.8 mph79%29.83 "Hg6 mi
3:00 PM79 °FPartly sunny.12 mph74%29.83 "HgN/A
2:00 PM77 °FDrizzle. Mostly cloudy.12 mph79%29.86 "Hg6 mi
1:00 PM77 °FLight rain. Fog.8 mph83%N/A2 mi
12:00 PM75 °FLight rain. Mostly cloudy.6 mph89%29.86 "Hg4 mi
11:00 AM75 °FLight rain. Mostly cloudy.6 mph89%29.86 "Hg2 mi
10:00 AM77 °FLight rain. Fog.8 mph89%N/A2 mi
9:00 AM79 °FFog.No wind84%29.83 "Hg3 mi
8:00 AM79 °FFog.5 mph84%29.83 "Hg3 mi
7:00 AM75 °FFog.5 mph94%29.80 "Hg2 mi
6:00 AM75 °FLight rain. Fog.3 mph89%N/A2 mi
5:00 AM75 °FLight rain. Fog.3 mph89%N/A2 mi
4:00 AM75 °FLight rain. Overcast.3 mph89%29.77 "Hg4 mi
Weather by CustomWeather, © 2014

See weather overviewHow to use our weather pages